Ely, NV

1:40 PM PDT on April 28, 2017 (GMT -0700)
Ely

Weather History for KELY - April, 2012

Change the Weather History Date:

Wednesday, April 11, 2012

  Actual Average Record
Temperature  
Mean Temperature 47 °F 41 °F  
Max Temperature 58 °F 56 °F 75 °F (1988)
Min Temperature 35 °F 26 °F 12 °F (1991)
Degree Days  
Heating Degree Days 18 24  
Month to date heating degree days 255 273  
Since 1 July heating degree days 5910 6500  
Cooling Degree Days 0 0  
Month to date cooling degree days 0 0  
Year to date cooling degree days 0 0  
Moisture  
Dew Point 28 °F    
Average Humidity 60    
Maximum Humidity 92    
Minimum Humidity 28    
Precipitation  
Precipitation 0.13 in 0.03 in 0.41 in (1983)
Month to date precipitation 0.48 0.35  
Year to date precipitation 3.21 2.73  
Snow  
Snow T in 0.20 in 4.10 in (1983)
Month to date snowfall 3.8 2.4  
Since 1 July snowfall 50.9 45.6  
Snow Depth 0.00 in    
Sea Level Pressure  
Sea Level Pressure 29.68 in    
Wind  
Wind Speed 17 mph (South)    
Max Wind Speed 32 mph    
Max Gust Speed 41 mph    
Visibility 10 miles    
Events Rain , Thunderstorm    
T = Trace of Precipitation, MM = Missing Value Source: NWS Daily Summary

Daily Weather History Graph

Daily Weather History Graph

Search for Another Location

Airport or City:

Trip Planner

Search our weather history database for the weather conditions in past years. The results will help you decide how hot, cold, wet, or windy it might be!

Date:

Astronomy

Apr. 11, 2012 Rise Set
Actual Time 6:07 AM PDT 7:13 PM PDT
Civil Twilight 5:39 AM PDT 7:41 PM PDT
Nautical Twilight 5:07 AM PDT 8:14 PM PDT
Astronomical Twilight 4:33 AM PDT 8:48 PM PDT
Moon 12:11 AM PDT (4/11) 10:01 AM PDT (4/11)
Length of Visible Light 14h 01m
Length of Day
13h 06m
Waning Gibbous, 68% of the Moon is Illuminated
Apr 11
Waning Gibbous
Apr 13
Last Quarter
Apr 21
New
Apr 29
First Quarter
May 5
Full

Hourly Weather History & Observations

Time (PDT) Temp. Windchill Dew Point Humidity Pressure Visibility Wind Dir Wind Speed Gust Speed Precip Events Conditions
12:53 AM 46.0 °F 40.6 °F 16.0 °F 30% 29.58 in 10.0 mi South 11.5 mph - N/A   Clear
1:53 AM 44.1 °F 38.1 °F 19.0 °F 37% 29.57 in 10.0 mi South 11.5 mph - N/A   Clear
2:53 AM 43.0 °F 35.4 °F 19.0 °F 38% 29.57 in 10.0 mi South 16.1 mph - N/A   Clear
3:53 AM 37.0 °F 30.4 °F 19.9 °F 50% 29.58 in 10.0 mi South 9.2 mph - N/A   Clear
4:53 AM 48.0 °F - 23.0 °F 37% 29.54 in 10.0 mi SSE 15.0 mph - N/A   Clear
5:53 AM 46.9 °F - 23.0 °F 39% 29.54 in 10.0 mi South 15.0 mph 23.0 mph N/A   Clear
6:53 AM 46.9 °F - 24.1 °F 41% 29.57 in 10.0 mi South 19.6 mph 25.3 mph N/A   Clear
7:53 AM 50.0 °F - 25.0 °F 38% 29.60 in 10.0 mi SSE 18.4 mph 25.3 mph N/A   Clear
8:53 AM 54.0 °F - 25.0 °F 33% 29.58 in 10.0 mi SSE 28.8 mph 36.8 mph N/A   Clear
9:53 AM 53.1 °F - 25.0 °F 34% 29.58 in 10.0 mi SSE 26.5 mph 41.4 mph N/A   Mostly Cloudy
10:53 AM 57.9 °F - 24.1 °F 27% 29.55 in 10.0 mi South 33.4 mph 49.5 mph N/A   Partly Cloudy
11:53 AM 50.0 °F - 33.1 °F 52% 29.62 in 10.0 mi SE 29.9 mph 42.6 mph N/A   Overcast
12:23 PM 44.6 °F 34.9 °F 33.8 °F 66% 29.78 in 8.0 mi SSW 28.8 mph 39.1 mph 0.00 in Rain , Thunderstorm Light Thunderstorms and Rain
12:50 PM 42.8 °F 36.2 °F 37.4 °F 81% 29.81 in - SSW 12.7 mph - 0.01 in Thunderstorm Thunderstorm
12:54 PM 42.1 °F 35.7 °F 37.0 °F 82% 29.70 in 10.0 mi South 11.5 mph - 0.01 in Rain Light Rain
1:53 PM 52.0 °F - 35.1 °F 53% 29.62 in 10.0 mi South 28.8 mph 34.5 mph 0.02 in   Scattered Clouds
2:53 PM 50.0 °F - 26.1 °F 39% 29.62 in 10.0 mi SW 21.9 mph 31.1 mph N/A   Mostly Cloudy
3:05 PM 46.4 °F 37.9 °F 24.8 °F 43% 29.76 in 10.0 mi WSW 25.3 mph 39.1 mph N/A   Mostly Cloudy
3:53 PM 51.1 °F - 21.9 °F 32% 29.64 in 10.0 mi South 18.4 mph 27.6 mph N/A   Scattered Clouds
4:16 PM 46.4 °F 38.7 °F 26.6 °F 46% 29.76 in 10.0 mi SW 20.7 mph 40.3 mph N/A   Mostly Cloudy
4:53 PM 44.1 °F 37.1 °F 30.0 °F 58% 29.66 in 10.0 mi South 15.0 mph 31.1 mph 0.00 in Rain Light Rain
5:53 PM 44.1 °F 37.1 °F 28.9 °F 55% 29.67 in 10.0 mi SSE 15.0 mph - 0.00 in   Overcast
6:53 PM 39.0 °F 29.6 °F 33.1 °F 79% 29.71 in 8.0 mi South 18.4 mph 35.7 mph 0.01 in Rain Light Rain
7:00 PM 39.2 °F 32.0 °F 32.0 °F 75% 29.80 in 10.0 mi SSE 11.5 mph - 0.00 in Rain Light Rain
7:07 PM 39.2 °F 33.0 °F 32.0 °F 75% 29.80 in 10.0 mi SE 9.2 mph - N/A Rain Light Rain
7:53 PM 41.0 °F - 30.0 °F 65% 29.68 in 10.0 mi Calm Calm - 0.00 in Rain Light Rain
8:53 PM 39.0 °F 31.4 °F 32.0 °F 76% 29.69 in 10.0 mi WSW 12.7 mph - 0.01 in Rain Light Rain
9:28 PM 37.4 °F 30.8 °F 33.8 °F 87% 29.84 in 8.0 mi SW 9.2 mph - 0.01 in Rain Light Rain
9:53 PM 37.0 °F 26.7 °F 33.1 °F 86% 29.73 in 9.0 mi SW 19.6 mph - 0.02 in Rain Light Rain
10:53 PM 37.0 °F 29.8 °F 33.1 °F 86% 29.73 in 10.0 mi SSE 10.4 mph - 0.03 in Rain Light Rain
11:31 PM 37.4 °F 30.3 °F 33.8 °F 87% 29.87 in 10.0 mi SSE 10.4 mph - 0.01 in Rain Light Rain
11:44 PM 35.6 °F 30.7 °F 33.8 °F 93% 29.88 in 10.0 mi South 5.8 mph - 0.02 in Rain Light Rain
11:53 PM 35.6 °F 29.9 °F 33.8 °F 93% 29.88 in 10.0 mi SSW 6.9 mph - N/A Rain Light Rain